This is the latest recevied weather packets stored in our database for station/object K5KHP. If no packets are shown the sender has not sent any weather packets the latest 10 day(s).
| Time | Temp. | Humidity | Pressure | Rain* | Wind** | Luminosity | Snow |
|---|---|---|---|---|---|---|---|
| 1778174067 | 20° C | 70% | 1015.5 hPa | 0 mm | - | 573 W/m² | - |
| 1778173765 | 20° C | 71% | 1015.8 hPa | 0 mm | - | 539 W/m² | - |
| 1778173461 | 19.44° C | 73% | 1015.6 hPa | 0 mm | - | 525 W/m² | - |
| 1778173158 | 19.44° C | 73% | 1015.7 hPa | 0 mm | - | 524 W/m² | - |
| 1778172853 | 20° C | 73% | 1015.5 hPa | 0 mm | - | 524 W/m² | - |
| 1778172549 | 19.44° C | 73% | 1015.6 hPa | 0 mm | - | 488 W/m² | - |
| 1778172246 | 18.89° C | 76% | 1015.9 hPa | 0 mm | - | 474 W/m² | - |
| 1778171944 | 18.89° C | 75% | 1015.8 hPa | 0 mm | - | 473 W/m² | - |
| 1778171641 | 18.89° C | 76% | 1015.7 hPa | 0 mm | - | 459 W/m² | - |
| 1778171337 | 18.33° C | 77% | 1015.8 hPa | 0 mm | - | 439 W/m² | - |
| 1778171033 | 18.33° C | 77% | 1015.8 hPa | 0 mm | - | 406 W/m² | - |
| 1778170730 | 18.89° C | 76% | 1015.8 hPa | 0 mm | - | 394 W/m² | - |
| 1778170427 | 17.78° C | 79% | 1015.7 hPa | 0 mm | - | 382 W/m² | - |
| 1778170123 | 17.78° C | 79% | 1015.8 hPa | 0 mm | - | 352 W/m² | - |
| 1778169819 | 17.78° C | 79% | 1015.6 hPa | 0 mm | - | 327 W/m² | - |
| 1778169515 | 17.78° C | 80% | 1015.9 hPa | 0 mm | - | 286 W/m² | - |
| 1778169211 | 17.78° C | 79% | 1015.7 hPa | 0 mm | - | 277 W/m² | - |
| 1778168908 | 17.78° C | 80% | 1016.1 hPa | 0 mm | - | 265 W/m² | - |
| 1778168606 | 17.78° C | 81% | 1015.9 hPa | 0 mm | - | 251 W/m² | - |
| 1778168302 | 17.22° C | 81% | 1015.8 hPa | 0 mm | - | 70 W/m² | - |
| 1778167998 | 17.22° C | 82% | 1016 hPa | 0 mm | - | 234 W/m² | - |
| 1778167695 | 16.67° C | 83% | 1016 hPa | 0 mm | - | 221 W/m² | - |
| 1778167391 | 16.67° C | 82% | 1016 hPa | 0 mm | - | 80 W/m² | - |
| 1778167088 | 17.22° C | 81% | 1016 hPa | 0 mm | - | 196 W/m² | - |
| 1778166784 | 17.22° C | 82% | 1016 hPa | 0 mm | - | 184 W/m² | - |
* Rain latest hour (hover to see other rain measurements)
** Current wind speed in m/s (hover to see current wind gust speed)